Wind_Speed
20 20 21 20 19 17 16 12 10 8 7 5 4 6 10 9 10 11 14 11 5 11 12 12 16 12 12 14 17 18 14 12 15 13 13 11 9 7 3 3 3 3 4 5 6 7 8 8 9
22 21 22 21 20 18 15 10 8 7 7 6 5 7 7 6 9 10 12 13 8 8 14 17 16 14 14 17 17 15 12 11 11 12 11 9 6 4 3 3 4 4 5 6 7 7 8 9 10
24 22 21 20 22 18 14 9 8 7 7 7 6 7 7 4 7 9 10 10 10 9 14 17 20 17 15 16 15 13 11 10 10 11 10 7 5 4 2 4 4 4 3 4 6 8 8 9 10
27 24 21 20 21 19 14 9 7 8 8 9 9 8 7 4 5 9 8 8 10 12 13 20 21 16 16 16 15 14 10 9 10 11 9 4 2 3 2 2 3 4 5 5 6 7 8 9 10
29 27 23 20 19 20 14 10 9 9 9 11 10 10 8 4 4 10 7 6 7 13 15 17 17 15 15 16 14 13 11 11 10 10 8 4 5 3 3 3 3 4 4 4 6 8 9 10 11
29 27 23 19 19 19 14 10 11 11 11 12 11 11 10 6 5 10 6 6 7 8 14 15 17 16 16 16 16 14 14 12 12 11 8 7 5 5 3 3 4 5 5 7 9 9 9 10 11
27 29 26 23 19 18 16 13 12 13 13 12 11 12 10 9 7 10 10 8 11 10 11 14 16 17 16 16 16 15 13 14 14 11 10 9 7 5 4 4 5 6 7 6 7 8 10 10 11
29 32 28 23 18 19 18 16 15 16 14 14 11 11 10 11 9 10 15 13 14 12 11 12 12 12 13 14 15 14 14 14 13 13 11 9 7 6 4 4 5 5 6 6 8 10 10 12 13
29 33 32 26 19 21 19 19 17 18 16 15 14 14 13 12 10 11 17 17 16 15 13 13 11 11 11 12 14 17 16 15 13 12 11 9 7 6 5 3 4 6 8 8 9 11 13 15 16
35 33 30 30 25 24 23 22 20 20 18 17 17 16 14 13 12 10 14 17 19 19 17 16 14 13 11 13 16 17 16 13 11 9 9 8 7 4 3 5 7 8 9 9 10 11 12 13 14
32 33 34 33 33 28 26 24 22 21 21 22 21 20 18 16 15 14 13 14 17 18 19 18 17 16 15 15 14 15 16 14 12 10 9 8 4 2 3 5 8 9 11 12 13 13 14 14 15
32 32 34 38 37 34 28 28 24 25 26 22 22 20 18 19 17 17 17 18 19 20 19 19 20 19 18 16 15 14 13 14 14 11 9 5 1 2 5 8 10 12 13 13 15 16 17 18 19
28 33 43 35 40 36 32 30 29 30 28 25 23 23 22 20 18 17 17 18 20 20 19 18 19 19 17 16 15 13 12 11 10 9 6 4 2 5 8 10 12 13 15 16 18 19 20 21 22
34 24 33 35 40 39 37 34 31 33 29 28 27 24 23 22 21 19 19 19 19 20 21 19 19 18 18 16 14 13 13 12 10 7 5 5 6 8 11 13 15 16 17 18 20 21 22 23 24
37 37 31 18 38 44 37 39 35 35 33 32 29 27 25 23 21 21 21 19 17 18 18 20 18 16 15 14 13 11 11 10 9 8 8 8 10 12 14 15 17 19 20 22 23 24 26 27 28
37 35 36 35 28 43 41 39 37 37 35 34 31 30 26 24 25 22 20 18 17 18 16 16 18 17 15 13 13 12 12 11 10 10 10 12 15 16 17 18 19 21 23 25 27 29 30 31 32
39 32 37 41 32 34 46 39 41 40 37 36 33 32 29 27 24 22 22 22 21 20 18 18 17 16 15 14 14 13 13 12 12 14 15 16 17 17 18 19 21 24 26 28 30 31 32 33 32
45 38 33 30 38 33 39 43 43 42 40 38 37 36 32 29 28 28 26 25 23 22 21 20 18 17 16 16 15 15 14 15 16 17 17 17 18 19 20 22 23 26 28 29 30 30 32 33 33
40 37 32 34 37 34 37 43 44 44 43 42 39 37 35 32 34 29 27 27 25 22 22 21 19 18 17 18 18 17 17 17 18 18 19 21 20 21 24 25 27 28 29 29 31 33 33 35 36
43 45 34 30 28 35 36 47 47 48 46 46 44 42 39 38 35 31 30 30 28 27 26 23 23 22 23 21 20 19 18 19 20 21 22 23 24 25 26 27 28 29 30 31 32 34 36 37 38
44 42 37 33 31 38 38 34 51 51 50 49 48 46 45 40 37 35 33 33 32 29 29 28 27 26 25 24 23 22 22 23 24 25 26 26 26 26 28 29 31 32 33 33 35 37 38 39 41
42 42 40 36 35 39 45 42 50 51 52 52 49 49 45 42 40 36 34 34 34 33 32 29 29 28 26 26 25 25 25 25 26 27 28 28 28 29 30 31 33 33 34 35 37 40 41 42 44
44 46 49 41 42 43 48 51 38 56 55 55 52 51 47 44 43 39 38 39 38 34 33 32 31 30 29 28 28 28 28 28 27 27 29 29 31 31 33 33 35 35 36 39 40 41 43 45 46
47 51 52 50 48 52 43 47 47 53 57 56 53 50 48 46 45 43 41 41 38 36 35 34 34 35 33 32 30 31 30 30 30 30 30 31 33 34 35 36 37 38 40 41 42 43 44 47 49
51 53 56 55 53 52 49 52 44 38 60 57 55 53 51 50 50 48 44 43 42 40 39 38 37 37 37 35 34 33 33 33 32 33 33 34 36 37 38 39 41 41 42 42 42 45 47 50 53
54 55 57 59 57 51 54 49 44 42 53 61 56 56 53 52 51 49 46 45 44 42 40 41 40 41 40 38 39 36 35 36 36 35 36 37 39 39 41 43 44 44 44 43 44 47 50 54 59
57 58 54 61 59 58 57 45 46 41 42 61 55 55 52 52 50 48 45 44 46 44 44 45 44 43 41 40 41 40 38 38 39 38 39 39 41 42 43 44 45 45 44 43 45 50 54 59 65
55 55 59 60 60 60 54 47 43 41 35 51 55 49 47 51 50 48 48 46 46 46 46 46 45 45 44 43 42 43 41 40 41 40 42 42 43 45 46 46 46 43 42 46 49 54 58 64 67
62 61 60 59 64 65 60 48 45 49 47 46 53 53 49 49 49 49 49 48 48 49 49 48 47 46 46 46 45 44 42 42 42 43 44 45 47 48 48 48 45 45 45 48 54 60 64 69 65
58 62 62 59 59 67 63 61 59 53 53 51 51 54 50 50 51 50 50 50 49 49 49 49 50 49 48 47 45 43 42 43 44 45 46 48 48 49 48 47 44 44 48 53 59 63 68 66 67
Wind_Direction
219 217 219 225 234 244 253 269 283 293 299 282 236 103 89 73 64 65 48 60 142 161 158 153 147 129 133 147 158 144 131 116 105 108 105 109 115 114 103 82 44 10 349 341 354 7 22 24 19
214 214 216 228 235 242 249 259 274 281 292 257 210 120 118 92 70 58 50 45 84 123 145 153 149 137 142 131 149 141 132 125 129 121 114 112 120 116 93 44 19 13 4 6 19 27 24 19 19
213 216 223 229 238 239 242 242 259 276 274 237 200 144 128 100 74 62 56 46 70 115 141 157 148 141 147 142 141 137 139 131 135 134 131 139 143 115 47 25 35 31 24 24 22 20 19 21 16
217 219 226 230 235 238 239 230 240 258 251 226 202 159 145 130 94 73 65 67 81 119 138 154 157 164 166 154 150 153 153 149 153 150 144 153 95 100 72 65 59 50 25 15 22 25 28 29 18
222 223 226 231 237 240 237 222 229 244 243 222 203 169 164 169 123 92 78 88 101 121 141 153 162 163 163 172 169 166 170 175 161 147 141 158 142 122 85 79 66 60 49 19 25 23 21 19 9
228 227 227 231 240 242 235 222 228 233 231 219 196 179 172 182 140 109 97 104 114 135 142 148 153 157 164 170 172 182 183 166 159 156 167 159 136 118 103 73 68 52 43 22 18 11 8 12 9
228 228 230 230 234 242 237 229 225 225 224 213 198 188 181 191 170 138 128 120 111 121 152 146 152 154 163 171 178 182 176 164 166 174 164 148 136 118 105 75 61 50 40 18 360 358 6 12 13
224 233 233 230 229 236 235 232 226 224 217 213 194 192 192 195 186 155 146 136 133 128 137 143 146 153 163 174 176 170 169 162 167 161 145 133 131 119 100 84 51 28 19 13 6 360 360 1 3
224 237 235 232 227 235 231 226 222 223 211 205 185 188 184 189 184 162 158 157 157 153 155 151 160 153 155 159 154 159 155 153 153 150 144 134 132 120 97 57 31 17 10 12 6 358 353 353 350
231 236 237 238 232 230 227 225 220 218 200 187 184 188 183 185 179 173 169 163 163 164 165 167 166 153 152 149 155 158 159 155 149 151 140 135 127 110 72 41 27 7 1 356 353 352 351 348 343
223 236 235 241 235 218 221 221 216 219 208 191 188 188 185 191 184 173 169 170 172 170 170 171 165 160 161 162 160 159 159 157 159 156 146 134 135 103 49 17 3 357 350 346 344 344 344 341 339
227 234 231 246 237 217 221 217 211 215 208 199 193 189 193 194 191 183 181 180 178 173 170 170 166 164 168 169 169 170 164 165 162 154 148 149 146 5 349 346 343 340 338 336 334 333 333 332 330
222 234 234 238 235 226 212 220 209 214 206 196 199 194 194 197 195 194 189 189 188 178 175 181 178 174 173 178 179 176 173 174 165 162 167 190 266 313 322 325 326 327 326 326 325 325 324 325 326
239 230 229 237 239 233 206 222 213 214 210 198 203 202 199 198 198 198 197 198 195 189 180 190 189 182 181 184 182 185 182 178 179 185 214 253 276 296 307 314 317 319 318 318 317 318 319 321 322
245 242 246 234 243 235 207 217 214 213 209 205 204 202 204 199 197 204 203 199 202 206 193 188 192 192 189 189 189 195 191 189 198 215 241 262 283 292 300 307 312 315 316 317 318 318 320 320 320
245 245 236 249 277 239 220 216 219 215 213 211 207 209 203 202 204 205 207 203 202 213 212 206 196 195 198 202 201 201 202 211 226 243 259 274 284 292 301 307 309 312 314 316 317 319 318 318 319
238 237 227 246 263 260 227 215 219 218 216 215 210 212 207 209 210 207 212 212 206 211 212 213 217 210 205 207 204 212 221 233 245 257 266 277 284 292 298 303 307 310 310 312 315 315 314 314 315
234 243 258 252 255 258 237 218 221 221 220 217 215 213 211 209 213 214 214 216 214 215 217 216 210 213 212 216 223 230 240 251 261 267 276 282 288 295 297 299 302 304 306 308 308 309 308 309 310
246 241 245 246 242 256 235 224 224 223 223 222 220 219 214 212 217 218 219 224 219 217 221 220 217 221 227 232 240 248 254 261 266 275 280 283 287 290 293 297 298 298 299 300 302 303 304 307 308
241 234 238 246 241 251 250 221 227 227 223 223 220 220 219 217 218 219 222 224 222 221 223 222 225 230 237 242 249 252 257 263 269 274 278 284 285 285 288 289 290 292 293 295 297 299 300 302 305
240 228 237 242 239 247 250 255 215 230 227 225 224 222 222 220 220 219 220 224 225 225 228 228 231 231 237 242 246 252 258 265 271 276 278 278 281 282 284 287 290 290 292 293 295 297 300 303 305
243 235 232 231 237 244 250 261 225 225 231 230 226 227 226 224 224 226 225 226 229 231 234 237 239 240 242 247 252 258 264 269 273 275 278 281 283 285 286 286 286 288 291 294 297 300 303 303 304
241 236 228 231 237 245 247 258 247 222 226 231 228 229 229 228 229 227 227 226 229 232 237 242 246 249 251 254 259 264 270 273 274 276 278 281 283 283 285 287 290 292 294 297 298 301 301 302 303
235 233 236 240 240 246 254 258 257 234 226 231 232 231 232 232 233 232 230 231 233 235 240 241 244 250 254 258 262 266 270 272 273 274 277 280 282 285 286 288 290 292 295 296 298 298 299 301 303
223 233 234 238 240 255 252 253 260 255 235 230 231 231 230 231 230 232 231 232 235 236 239 241 244 250 257 261 263 267 270 273 275 277 279 280 282 283 285 287 288 291 293 294 295 297 299 301 302
223 228 233 238 243 250 255 256 260 263 245 231 232 234 234 235 235 236 236 235 237 239 242 245 246 250 255 262 266 268 272 274 274 276 278 280 282 284 286 287 289 291 293 293 294 296 298 302 305
222 223 230 236 241 246 256 254 255 264 253 237 231 235 238 239 238 241 242 243 243 242 243 245 247 250 254 259 264 269 272 275 276 278 278 279 281 283 284 286 288 289 290 290 293 297 300 304 306
230 229 236 238 240 246 253 255 254 258 261 247 238 236 240 243 244 243 245 246 247 246 248 248 249 252 256 259 262 266 270 274 276 278 279 280 281 282 283 285 285 286 287 288 294 299 302 307 309
229 231 231 238 239 243 249 256 257 263 263 253 243 238 240 242 244 242 244 245 246 248 250 251 254 255 258 260 262 266 270 272 275 276 277 279 280 281 282 282 283 283 289 293 299 303 306 309 307
241 240 238 247 244 243 246 252 256 260 262 253 246 243 245 244 243 243 245 247 249 251 253 255 257 259 261 263 265 268 270 271 272 274 276 276 277 278 279 279 280 285 293 299 303 306 308 305 305
Height
5850 5851 5854 5857 5862 5862 5863 5863 5862 5860 5861 5861 5861 5862 5862 5862 5861 5862 5857 5856 5856 5856 5859 5862 5865 5867 5867 5869 5871 5873 5876 5877 5879 5880 5881 5882 5883 5883 5884 5884 5883 5883 5883 5882 5882 5881 5881 5880 5879
5846 5849 5853 5856 5860 5860 5861 5862 5860 5860 5861 5861 5861 5862 5863 5863 5861 5860 5859 5858 5858 5858 5859 5862 5864 5867 5868 5869 5872 5874 5876 5877 5878 5879 5881 5882 5883 5883 5884 5884 5883 5883 5882 5882 5882 5882 5881 5880 5880
5844 5847 5852 5854 5858 5859 5859 5860 5858 5860 5860 5860 5861 5862 5863 5864 5861 5861 5859 5859 5858 5860 5861 5863 5864 5868 5870 5871 5872 5874 5875 5877 5878 5879 5880 5882 5882 5883 5884 5884 5884 5884 5883 5882 5882 5882 5882 5881 5880
5841 5845 5849 5853 5856 5857 5858 5858 5857 5858 5860 5860 5860 5862 5864 5863 5862 5861 5861 5860 5859 5860 5863 5864 5865 5867 5870 5871 5872 5874 5876 5877 5878 5879 5880 5882 5883 5884 5884 5884 5884 5885 5885 5883 5883 5883 5882 5882 5880
5838 5842 5846 5850 5853 5854 5856 5856 5856 5857 5859 5859 5860 5861 5864 5864 5863 5862 5862 5861 5861 5861 5863 5864 5865 5867 5870 5872 5873 5874 5875 5877 5878 5880 5882 5882 5883 5884 5885 5886 5886 5886 5885 5884 5884 5884 5884 5883 5882
5836 5840 5845 5848 5852 5853 5855 5855 5856 5856 5858 5858 5859 5861 5863 5863 5863 5863 5864 5863 5862 5863 5864 5865 5865 5867 5869 5870 5872 5874 5876 5877 5879 5881 5882 5883 5885 5885 5887 5887 5887 5887 5887 5886 5885 5885 5884 5883 5881
5833 5836 5842 5845 5849 5852 5854 5855 5855 5856 5856 5857 5859 5859 5863 5863 5863 5863 5863 5865 5864 5865 5867 5866 5866 5866 5868 5870 5872 5874 5876 5877 5879 5881 5883 5884 5885 5886 5887 5888 5888 5888 5888 5886 5885 5884 5883 5882 5881
5830 5836 5837 5841 5847 5850 5853 5854 5855 5855 5855 5856 5858 5859 5862 5863 5863 5862 5863 5864 5865 5867 5870 5869 5869 5870 5870 5871 5872 5874 5877 5879 5880 5882 5884 5885 5886 5887 5888 5888 5889 5888 5888 5887 5886 5884 5883 5883 5882
5827 5833 5836 5840 5844 5848 5851 5853 5853 5854 5855 5856 5857 5859 5860 5862 5864 5862 5863 5863 5866 5868 5870 5871 5871 5872 5873 5873 5873 5876 5878 5880 5882 5884 5884 5885 5887 5888 5888 5888 5888 5888 5888 5888 5887 5886 5884 5883 5882
5824 5830 5833 5836 5839 5844 5848 5851 5851 5854 5854 5855 5856 5859 5859 5862 5863 5863 5863 5863 5865 5867 5869 5870 5872 5873 5875 5876 5877 5877 5879 5882 5884 5885 5886 5887 5888 5888 5889 5889 5888 5888 5887 5887 5886 5886 5884 5883 5881
5819 5825 5827 5832 5835 5840 5845 5848 5850 5852 5854 5852 5854 5857 5858 5861 5863 5863 5865 5866 5867 5868 5869 5870 5870 5873 5876 5877 5879 5880 5880 5881 5883 5886 5887 5888 5888 5889 5889 5888 5888 5887 5886 5885 5884 5884 5883 5882 5881
5814 5818 5823 5827 5832 5837 5842 5842 5847 5851 5851 5852 5854 5856 5859 5861 5864 5864 5866 5867 5868 5869 5869 5870 5870 5871 5874 5877 5879 5881 5882 5882 5882 5884 5886 5888 5889 5889 5889 5888 5887 5886 5885 5884 5883 5882 5881 5880 5879
5810 5813 5818 5822 5828 5832 5837 5841 5842 5847 5849 5851 5853 5854 5857 5860 5863 5866 5867 5868 5869 5869 5870 5871 5872 5872 5874 5876 5878 5880 5882 5885 5886 5886 5887 5888 5888 5888 5888 5887 5886 5885 5884 5882 5881 5879 5878 5877 5875
5807 5808 5812 5817 5823 5827 5833 5837 5838 5844 5848 5848 5851 5853 5856 5858 5860 5863 5866 5868 5869 5870 5869 5871 5873 5873 5874 5876 5879 5881 5882 5884 5885 5887 5887 5888 5887 5886 5886 5885 5883 5883 5881 5880 5879 5878 5876 5874 5872
5801 5806 5809 5812 5819 5822 5826 5831 5837 5840 5843 5847 5848 5851 5854 5857 5859 5860 5862 5864 5868 5870 5870 5870 5872 5875 5875 5876 5878 5880 5882 5883 5884 5885 5885 5885 5885 5884 5883 5882 5881 5880 5879 5878 5876 5875 5874 5872 5870
5793 5797 5803 5810 5814 5818 5822 5830 5834 5836 5839 5843 5845 5850 5851 5855 5856 5859 5862 5864 5864 5869 5870 5871 5871 5872 5874 5876 5877 5880 5880 5881 5883 5883 5883 5883 5882 5880 5879 5879 5877 5876 5875 5874 5872 5871 5869 5867 5866
5784 5789 5795 5801 5808 5812 5816 5825 5827 5831 5836 5840 5843 5847 5849 5851 5856 5858 5860 5862 5861 5864 5867 5868 5871 5871 5872 5874 5875 5877 5879 5881 5881 5881 5880 5879 5878 5877 5876 5874 5873 5872 5871 5870 5868 5867 5865 5862 5861
5780 5785 5791 5795 5802 5805 5809 5819 5822 5826 5832 5837 5839 5842 5845 5848 5851 5853 5856 5858 5859 5862 5865 5866 5868 5871 5871 5872 5873 5874 5876 5877 5877 5877 5877 5876 5875 5874 5873 5871 5869 5867 5867 5865 5863 5861 5859 5857 5856
5780 5781 5786 5791 5792 5799 5804 5813 5818 5822 5827 5831 5835 5841 5842 5844 5843 5849 5852 5856 5857 5859 5862 5864 5864 5867 5869 5869 5870 5871 5871 5872 5872 5873 5873 5872 5870 5869 5867 5866 5865 5863 5861 5859 5857 5855 5852 5850 5849
5771 5778 5781 5785 5784 5792 5797 5804 5811 5813 5820 5825 5829 5832 5836 5836 5840 5844 5847 5851 5853 5855 5858 5860 5861 5862 5863 5863 5865 5865 5867 5867 5868 5868 5867 5867 5866 5864 5862 5861 5859 5857 5855 5853 5851 5849 5846 5843 5841
5766 5773 5774 5777 5779 5782 5789 5791 5799 5807 5813 5817 5822 5825 5828 5833 5836 5839 5841 5846 5846 5850 5853 5855 5857 5857 5859 5860 5860 5860 5861 5862 5863 5863 5864 5862 5860 5859 5857 5855 5853 5851 5849 5847 5844 5842 5839 5837 5834
5760 5767 5768 5770 5773 5774 5780 5782 5791 5797 5806 5811 5815 5820 5825 5829 5832 5835 5838 5842 5842 5844 5847 5849 5851 5852 5853 5855 5857 5856 5857 5857 5857 5857 5857 5857 5855 5853 5851 5849 5847 5844 5843 5840 5837 5835 5832 5829 5825
5757 5759 5759 5762 5764 5767 5771 5774 5789 5788 5793 5802 5808 5814 5819 5823 5827 5829 5832 5834 5836 5838 5841 5841 5844 5845 5846 5846 5850 5850 5850 5851 5849 5849 5849 5849 5848 5845 5843 5842 5840 5838 5835 5832 5829 5826 5823 5820 5816
5748 5749 5752 5754 5755 5755 5770 5770 5773 5784 5787 5794 5802 5808 5815 5817 5821 5824 5825 5828 5831 5833 5835 5836 5838 5840 5840 5841 5842 5843 5843 5843 5843 5842 5842 5841 5840 5838 5836 5834 5832 5829 5826 5823 5820 5816 5812 5808 5804
5732 5741 5741 5740 5742 5755 5757 5756 5770 5778 5779 5784 5792 5799 5804 5807 5810 5815 5817 5820 5823 5826 5828 5830 5832 5833 5834 5834 5835 5836 5836 5835 5834 5834 5834 5833 5832 5831 5828 5826 5823 5819 5816 5813 5809 5806 5802 5798 5794
5724 5727 5735 5738 5741 5747 5744 5751 5761 5766 5770 5777 5782 5790 5794 5799 5803 5808 5812 5813 5816 5819 5821 5824 5825 5825 5826 5826 5828 5827 5828 5828 5828 5827 5826 5826 5825 5822 5820 5817 5814 5811 5808 5804 5799 5795 5792 5787 5783
5710 5712 5728 5727 5734 5736 5738 5748 5751 5754 5763 5767 5774 5781 5788 5792 5796 5801 5804 5806 5809 5810 5812 5814 5816 5817 5818 5818 5819 5819 5820 5821 5820 5819 5818 5816 5814 5812 5809 5807 5804 5801 5797 5793 5789 5785 5781 5776 5771
5703 5713 5714 5717 5723 5727 5732 5737 5744 5747 5753 5759 5766 5773 5779 5784 5788 5792 5795 5797 5799 5801 5802 5805 5806 5808 5809 5810 5811 5811 5810 5811 5810 5810 5809 5807 5804 5802 5800 5797 5794 5790 5787 5783 5779 5775 5770 5764 5760
5694 5698 5703 5709 5713 5717 5724 5729 5737 5739 5745 5749 5755 5763 5768 5772 5776 5780 5783 5785 5787 5789 5792 5794 5797 5798 5799 5800 5801 5801 5802 5801 5801 5800 5799 5797 5795 5792 5789 5787 5784 5781 5778 5774 5769 5764 5758 5754 5748
5683 5690 5694 5696 5707 5709 5713 5722 5725 5728 5733 5740 5744 5750 5757 5761 5765 5768 5770 5774 5776 5779 5781 5783 5785 5786 5788 5790 5791 5790 5791 5791 5790 5789 5788 5786 5784 5781 5778 5776 5774 5771 5768 5763 5758 5753 5747 5741 5736